When you browse on this site, cookies collect data to enhance your experience and personalize the content and advertising you see.
Visit our Privacy Policy to learn more. By continuing to use the site, you agree to this use of cookies and data.
  • In Romania
  • List of Countries
  • For 7 days
  • Water Temperature
  • Weather Map
  • Weather Widgets
  • user-avatar
    Login

    Hourly Weather Belcesti

    Today, 27 May, Wednesday

    Time Temperature Precipitation Wind Pressure Humidity
    00:00 +10°C° 0.3 mm 3 mps 758 mmHg 94%
    01:00 +10°C° 0.3 mm 3 mps 758 mmHg 95%
    02:00 +10°C° 0 mm 3 mps 758 mmHg 97%
    03:00 +10°C° 0.6 mm 3 mps 758 mmHg 97%
    04:00 +10°C° 0.6 mm 2 mps 758 mmHg 97%
    05:00 +10°C° 0.6 mm 2 mps 758 mmHg 97%
    06:00 +10°C° 0.4 mm 2 mps 758 mmHg 96%
    07:00 +12°C° 0.4 mm 2 mps 758 mmHg 94%
    08:00 +11°C° 0 mm 3 mps 759 mmHg 93%
    09:00 +12°C° 0.3 mm 3 mps 759 mmHg 90%
    10:00 +13°C° 0.3 mm 4 mps 759 mmHg 86%
    11:00 +13°C° 0.3 mm 4 mps 759 mmHg 83%
    12:00 +14°C° 0.7 mm 5 mps 758 mmHg 80%
    13:00 +15°C° 0.7 mm 5 mps 758 mmHg 77%
    14:00 +16°C° 0.7 mm 5 mps 757 mmHg 73%
    15:00 +16°C° 0.6 mm 5 mps 757 mmHg 74%
    16:00 +16°C° 0.6 mm 5 mps 757 mmHg 74%
    17:00 +16°C° 0.6 mm 5 mps 757 mmHg 74%
    18:00 +15°C° 0.3 mm 4 mps 757 mmHg 79%
    19:00 +13°C° 0.3 mm 4 mps 757 mmHg 84%
    20:00 +12°C° 0.3 mm 3 mps 757 mmHg 88%
    21:00 +12°C° 0.1 mm 3 mps 757 mmHg 90%
    22:00 +11°C° 0.1 mm 3 mps 757 mmHg 91%
    23:00 +10°C° 0.1 mm 3 mps 757 mmHg 93%

    Tomorrow, 28 May, Thursday

    Time Temperature Precipitation Wind Pressure Humidity
    00:00 +10°C° 0 mm 3 mps 757 mmHg 93%
    01:00 +10°C° 0 mm 3 mps 757 mmHg 94%
    02:00 +9°C° 0 mm 3 mps 756 mmHg 94%
    03:00 +9°C° 0 mm 3 mps 756 mmHg 94%
    04:00 +9°C° 0 mm 3 mps 756 mmHg 95%
    05:00 +9°C° 0 mm 3 mps 755 mmHg 95%
    06:00 +10°C° 0 mm 4 mps 755 mmHg 91%
    07:00 +12°C° 0 mm 5 mps 755 mmHg 87%
    08:00 +13°C° 0 mm 6 mps 754 mmHg 83%
    09:00 +15°C° 0.3 mm 6 mps 754 mmHg 79%
    10:00 +16°C° 0.3 mm 6 mps 753 mmHg 74%
    11:00 +17°C° 0.3 mm 6 mps 753 mmHg 70%
    12:00 +17°C° 0.3 mm 6 mps 752 mmHg 68%
    13:00 +19°C° 0.3 mm 6 mps 752 mmHg 66%
    14:00 +19°C° 0.3 mm 6 mps 751 mmHg 65%
    15:00 +19°C° 0.3 mm 6 mps 751 mmHg 67%
    16:00 +17°C° 0.3 mm 6 mps 751 mmHg 70%
    17:00 +17°C° 0.3 mm 5 mps 750 mmHg 73%
    18:00 +16°C° 0.4 mm 5 mps 750 mmHg 76%
    19:00 +15°C° 0.4 mm 5 mps 750 mmHg 80%
    20:00 +14°C° 0.4 mm 4 mps 750 mmHg 83%
    21:00 +14°C° 0.1 mm 5 mps 750 mmHg 84%
    22:00 +13°C° 0.1 mm 5 mps 750 mmHg 84%
    23:00 +13°C° 0.1 mm 6 mps 750 mmHg 84%

    Day after tomorrow, 29 May, Friday

    Time Temperature Precipitation Wind Pressure Humidity
    00:00 +11°C° 0 mm 6 mps 750 mmHg 85%
    01:00 +12°C° 0 mm 5 mps 750 mmHg 85%
    02:00 +12°C° 0 mm 5 mps 750 mmHg 86%
    03:00 +10°C° 0 mm 5 mps 750 mmHg 86%
    04:00 +10°C° 0 mm 5 mps 750 mmHg 87%
    05:00 +11°C° 0 mm 4 mps 751 mmHg 87%
    06:00 +12°C° 0 mm 5 mps 751 mmHg 84%
    07:00 +13°C° 0 mm 6 mps 751 mmHg 81%
    08:00 +15°C° 0 mm 7 mps 751 mmHg 77%
    09:00 +15°C° 0.2 mm 7 mps 751 mmHg 75%
    10:00 +16°C° 0.2 mm 7 mps 751 mmHg 73%
    11:00 +17°C° 0.2 mm 7 mps 751 mmHg 71%
    12:00 +17°C° 0.1 mm 7 mps 751 mmHg 66%
    13:00 +18°C° 0.1 mm 7 mps 751 mmHg 61%
    14:00 +20°C° 0.1 mm 7 mps 751 mmHg 57%
    15:00 +20°C° 0 mm 7 mps 751 mmHg 58%
    16:00 +19°C° 0 mm 6 mps 751 mmHg 60%
    17:00 +19°C° 0 mm 6 mps 751 mmHg 61%
    18:00 +17°C° 0 mm 5 mps 751 mmHg 68%
    19:00 +15°C° 0 mm 4 mps 751 mmHg 74%
    20:00 +13°C° 0 mm 3 mps 751 mmHg 81%
    21:00 +13°C° 0 mm 3 mps 751 mmHg 82%
    22:00 +12°C° 0 mm 4 mps 751 mmHg 84%
    23:00 +11°C° 0 mm 4 mps 751 mmHg 85%

    30 May, Saturday

    Time Temperature Precipitation Wind Pressure Humidity
    00:00 +10°C° 0 mm 3 mps 751 mmHg 86%
    01:00 +10°C° 0 mm 3 mps 751 mmHg 86%
    02:00 +10°C° 0 mm 3 mps 751 mmHg 87%
    03:00 +9°C° 0 mm 3 mps 751 mmHg 87%
    04:00 +9°C° 0 mm 2 mps 751 mmHg 87%
    05:00 +9°C° 0 mm 2 mps 751 mmHg 87%
    06:00 +10°C° 0 mm 3 mps 751 mmHg 82%
    07:00 +12°C° 0 mm 3 mps 751 mmHg 78%
    08:00 +13°C° 0 mm 4 mps 751 mmHg 74%
    09:00 +15°C° 0 mm 4 mps 751 mmHg 69%
    10:00 +17°C° 0 mm 4 mps 751 mmHg 64%
    11:00 +19°C° 0 mm 5 mps 751 mmHg 59%
    12:00 +19°C° 0.1 mm 4 mps 751 mmHg 57%
    13:00 +20°C° 0.1 mm 4 mps 750 mmHg 56%
    14:00 +20°C° 0.1 mm 4 mps 750 mmHg 55%
    15:00 +20°C° 0.1 mm 4 mps 750 mmHg 58%
    16:00 +20°C° 0.1 mm 4 mps 750 mmHg 60%
    17:00 +19°C° 0.1 mm 4 mps 750 mmHg 62%
    18:00 +18°C° 0.1 mm 3 mps 750 mmHg 68%
    19:00 +16°C° 0.1 mm 3 mps 750 mmHg 74%
    20:00 +15°C° 0.1 mm 2 mps 751 mmHg 80%
    21:00 +14°C° 0.1 mm 2 mps 751 mmHg 82%
    22:00 +14°C° 0.1 mm 1 mps 751 mmHg 85%
    23:00 +13°C° 0.1 mm 1 mps 751 mmHg 87%

    31 May, Sunday

    Time Temperature Precipitation Wind Pressure Humidity
    00:00 +11°C° 0 mm 0 mps 751 mmHg 88%
    01:00 +11°C° 0 mm 0 mps 751 mmHg 89%
    02:00 +10°C° 0 mm 0 mps 751 mmHg 90%
    03:00 +11°C° 0 mm 1 mps 751 mmHg 90%
    04:00 +11°C° 0 mm 1 mps 751 mmHg 91%
    05:00 +10°C° 0 mm 1 mps 751 mmHg 91%
    06:00 +12°C° 0 mm 2 mps 751 mmHg 84%
    07:00 +15°C° 0 mm 2 mps 751 mmHg 76%
    08:00 +17°C° 0 mm 2 mps 750 mmHg 68%
    09:00 +18°C° 0 mm 2 mps 750 mmHg 60%
    10:00 +20°C° 0 mm 2 mps 750 mmHg 52%
    11:00 +21°C° 0 mm 2 mps 750 mmHg 44%
    12:00 +23°C° 0 mm 1 mps 750 mmHg 44%
    13:00 +24°C° 0 mm 1 mps 750 mmHg 43%
    14:00 +24°C° 0 mm 1 mps 750 mmHg 42%
    15:00 +24°C° 0 mm 2 mps 750 mmHg 45%
    16:00 +24°C° 0 mm 2 mps 750 mmHg 47%
    17:00 +24°C° 0 mm 2 mps 750 mmHg 49%
    18:00 +21°C° 0.1 mm 2 mps 750 mmHg 56%
    19:00 +19°C° 0.1 mm 2 mps 750 mmHg 62%
    20:00 +18°C° 0.1 mm 2 mps 751 mmHg 69%
    21:00 +17°C° 0 mm 2 mps 751 mmHg 72%
    22:00 +16°C° 0 mm 2 mps 751 mmHg 74%
    23:00 +15°C° 0 mm 2 mps 752 mmHg 77%

    1 June, Monday

    Time Temperature Precipitation Wind Pressure Humidity
    00:00 +14°C° 0.1 mm 2 mps 752 mmHg 79%
    01:00 +14°C° 0.1 mm 2 mps 752 mmHg 82%
    02:00 +13°C° 0.1 mm 2 mps 752 mmHg 84%
    03:00 +13°C° 0 mm 2 mps 752 mmHg 86%
    04:00 +13°C° 0 mm 2 mps 752 mmHg 88%
    05:00 +13°C° 0 mm 2 mps 752 mmHg 90%
    06:00 +14°C° 0 mm 2 mps 752 mmHg 85%
    07:00 +15°C° 0 mm 2 mps 753 mmHg 81%
    08:00 +17°C° 0 mm 3 mps 753 mmHg 76%
    09:00 +18°C° 0 mm 3 mps 753 mmHg 72%
    10:00 +19°C° 0 mm 3 mps 753 mmHg 68%
    11:00 +20°C° 0 mm 3 mps 753 mmHg 65%
    12:00 +20°C° 0.1 mm 3 mps 753 mmHg 64%
    13:00 +21°C° 0.1 mm 4 mps 753 mmHg 63%
    14:00 +21°C° 0.1 mm 4 mps 753 mmHg 62%
    15:00 +21°C° 0.4 mm 4 mps 753 mmHg 65%
    16:00 +20°C° 0.4 mm 4 mps 753 mmHg 67%
    17:00 +20°C° 0.4 mm 4 mps 753 mmHg 69%
    18:00 +19°C° 0.4 mm 3 mps 753 mmHg 76%
    19:00 +17°C° 0.4 mm 3 mps 753 mmHg 82%
    20:00 +16°C° 0.4 mm 3 mps 753 mmHg 88%
    21:00 +14°C° 0.1 mm 3 mps 753 mmHg 90%
    22:00 +14°C° 0.1 mm 2 mps 754 mmHg 91%
    23:00 +14°C° 0.1 mm 2 mps 754 mmHg 93%
    Show more